Time,TemperatureF,DewpointF,PressureIn,WindDirection,WindDirectionDegrees,WindSpeedMPH,WindSpeedGustMPH,Humidity,HourlyPrecipIn,Conditions,Clouds,dailyrainin,SolarRadiationWatts/m^2,SoftwareType,DateUTC
2013-01-17 00:00:00,32.5,30.4,29.99,SSW,205,10.0,13.0,92,0.00,,,0.26,0,HR-IXPWINDi_r2_v1.2.,2013-01-17 05:00:00,
2013-01-17 00:05:00,32.5,30.4,30.00,South,184,10.0,13.0,92,0.00,,,0.26,0,HR-IXPWINDi_r2_v1.2.,2013-01-17 05:05:00,
2013-01-17 00:10:00,32.5,30.4,30.00,South,186,8.0,14.0,92,0.00,,,0.00,0,HR-IXPWINDi_r2_v1.2.,2013-01-17 05:10:00,
2013-01-17 00:15:00,32.5,30.4,30.00,WSW,242,4.0,14.0,92,0.00,,,0.00,0,HR-IXPWINDi_r2_v1.2.,2013-01-17 05:15:00,
2013-01-17 00:20:00,32.5,30.4,30.02,SW,224,6.0,11.0,92,0.00,,,0.00,0,HR-IXPWINDi_r2_v1.2.,2013-01-17 05:20:00,
2013-01-17 00:26:00,32.5,30.1,30.02,SSW,208,5.0,10.0,91,0.00,,,0.00,0,HR-IXPWINDi_r2_v1.2.,2013-01-17 05:26:00,
2013-01-17 00:31:00,32.5,30.1,30.02,SW,227,6.0,11.0,91,0.00,,,0.00,0,HR-IXPWINDi_r2_v1.2.,2013-01-17 05:31:00,
2013-01-17 00:36:00,32.5,30.1,30.02,WSW,239,7.0,12.0,91,0.00,,,0.00,0,HR-IXPWINDi_r2_v1.2.,2013-01-17 05:36:00,
2013-01-17 00:41:00,32.5,30.1,30.02,SSW,210,6.0,12.0,91,0.00,,,0.00,0,HR-IXPWINDi_r2_v1.2.,2013-01-17 05:41:00,
2013-01-17 00:46:00,32.5,30.1,30.02,SSW,208,7.0,12.0,91,0.00,,,0.00,0,HR-IXPWINDi_r2_v1.2.,2013-01-17 05:46:00,
2013-01-17 00:51:00,32.5,30.1,30.03,WSW,244,4.0,11.0,91,0.00,,,0.00,0,HR-IXPWINDi_r2_v1.2.,2013-01-17 05:51:00,
2013-01-17 00:56:00,32.5,30.1,30.03,SSW,208,5.0,12.0,91,0.00,,,0.00,0,HR-IXPWINDi_r2_v1.2.,2013-01-17 05:56:00,
2013-01-17 01:02:00,32.5,30.1,30.03,SSW,197,4.0,12.0,91,0.00,,,0.00,0,HR-IXPWINDi_r2_v1.2.,2013-01-17 06:02:00,
2013-01-17 01:07:00,32.5,30.1,30.02,SW,219,5.0,15.0,91,0.00,,,0.00,0,HR-IXPWINDi_r2_v1.2.,2013-01-17 06:07:00,
2013-01-17 01:12:00,32.4,29.8,30.02,SW,223,5.0,15.0,90,0.00,,,0.00,0,HR-IXPWINDi_r2_v1.2.,2013-01-17 06:12:00,
2013-01-17 01:17:00,32.4,29.8,30.02,SSW,210,5.0,10.0,90,0.00,,,0.00,0,HR-IXPWINDi_r2_v1.2.,2013-01-17 06:17:00,
2013-01-17 01:22:00,32.4,29.8,30.03,SW,220,1.0,10.0,90,0.00,,,0.00,0,HR-IXPWINDi_r2_v1.2.,2013-01-17 06:22:00,
2013-01-17 01:28:00,32.4,29.8,30.03,SW,219,4.0,9.0,90,0.00,,,0.00,0,HR-IXPWINDi_r2_v1.2.,2013-01-17 06:28:00,
2013-01-17 01:33:00,32.4,29.8,30.03,SW,236,9.0,10.0,90,0.00,,,0.00,0,HR-IXPWINDi_r2_v1.2.,2013-01-17 06:33:00,
2013-01-17 01:38:00,32.2,29.6,30.02,SSW,212,6.0,10.0,90,0.00,,,0.00,0,HR-IXPWINDi_r2_v1.2.,2013-01-17 06:38:00,
2013-01-17 01:43:00,32.2,29.3,30.02,SSW,198,6.0,11.0,89,0.00,,,0.00,0,HR-IXPWINDi_r2_v1.2.,2013-01-17 06:43:00,
2013-01-17 01:49:00,32.2,29.3,30.02,SSW,193,10.0,11.0,89,0.00,,,0.00,0,HR-IXPWINDi_r2_v1.2.,2013-01-17 06:49:00,
2013-01-17 01:54:00,32.2,29.3,30.03,SSW,206,5.0,10.0,89,0.00,,,0.00,0,HR-IXPWINDi_r2_v1.2.,2013-01-17 06:54:00,
2013-01-17 01:59:00,32.2,29.3,30.03,South,190,3.0,12.0,89,0.00,,,0.00,0,HR-IXPWINDi_r2_v1.2.,2013-01-17 06:59:00,
2013-01-17 02:04:00,32.1,28.9,30.03,WSW,253,4.0,12.0,88,0.00,,,0.00,0,HR-IXPWINDi_r2_v1.2.,2013-01-17 07:04:00,
2013-01-17 02:09:00,32.1,28.9,30.03,SSW,203,5.0,12.0,88,0.00,,,0.00,0,HR-IXPWINDi_r2_v1.2.,2013-01-17 07:09:00,
2013-01-17 02:14:00,32.2,29.0,30.03,SSW,196,2.0,12.0,88,0.00,,,0.00,0,HR-IXPWINDi_r2_v1.2.,2013-01-17 07:14:00,
2013-01-17 02:19:00,32.2,29.0,30.03,WSW,241,9.0,11.0,88,0.00,,,0.00,0,HR-IXPWINDi_r2_v1.2.,2013-01-17 07:19:00,
2013-01-17 02:25:00,32.2,28.7,30.04,SW,215,1.0,11.0,87,0.00,,,0.00,0,HR-IXPWINDi_r2_v1.2.,2013-01-17 07:25:00,
2013-01-17 02:30:00,32.2,28.7,30.04,SW,227,2.0,11.0,87,0.00,,,0.00,0,HR-IXPWINDi_r2_v1.2.,2013-01-17 07:30:00,
2013-01-17 02:35:00,32.2,28.7,30.04,SW,224,3.0,11.0,87,0.00,,,0.00,0,HR-IXPWINDi_r2_v1.2.,2013-01-17 07:35:00,
2013-01-17 02:40:00,32.4,28.7,30.04,SSW,212,4.0,11.0,86,0.00,,,0.00,0,HR-IXPWINDi_r2_v1.2.,2013-01-17 07:40:00,
2013-01-17 02:46:00,32.4,28.7,30.04,SSW,212,5.0,11.0,86,0.00,,,0.00,0,HR-IXPWINDi_r2_v1.2.,2013-01-17 07:46:00,
2013-01-17 02:51:00,32.4,28.7,30.05,SSW,207,7.0,12.0,86,0.00,,,0.00,0,HR-IXPWINDi_r2_v1.2.,2013-01-17 07:51:00,
2013-01-17 02:56:00,32.4,28.7,30.05,SW,222,1.0,12.0,86,0.00,,,0.00,0,HR-IXPWINDi_r2_v1.2.,2013-01-17 07:56:00,
2013-01-17 03:01:00,32.4,28.4,30.05,SW,215,4.0,9.0,85,0.00,,,0.00,0,HR-IXPWINDi_r2_v1.2.,2013-01-17 08:01:00,
2013-01-17 03:06:00,32.5,28.5,30.05,SSW,206,1.0,9.0,85,0.00,,,0.01,0,HR-IXPWINDi_r2_v1.2.,2013-01-17 08:06:00,
2013-01-17 03:12:00,32.5,28.5,30.05,SW,217,2.0,9.0,85,0.00,,,0.01,0,HR-IXPWINDi_r2_v1.2.,2013-01-17 08:12:00,
2013-01-17 03:17:00,32.5,28.5,30.05,SW,224,6.0,12.0,85,0.00,,,0.01,0,HR-IXPWINDi_r2_v1.2.,2013-01-17 08:17:00,
2013-01-17 03:22:00,32.5,28.5,30.05,SW,220,2.0,12.0,85,0.00,,,0.01,0,HR-IXPWINDi_r2_v1.2.,2013-01-17 08:22:00,
2013-01-17 03:27:00,32.4,28.4,30.05,SW,214,4.0,10.0,85,0.00,,,0.01,0,HR-IXPWINDi_r2_v1.2.,2013-01-17 08:27:00,
2013-01-17 03:32:00,32.4,28.4,30.05,SW,232,3.0,11.0,85,0.00,,,0.01,0,HR-IXPWINDi_r2_v1.2.,2013-01-17 08:32:00,
2013-01-17 03:38:00,32.4,28.4,30.06,SW,231,4.0,11.0,85,0.00,,,0.01,0,HR-IXPWINDi_r2_v1.2.,2013-01-17 08:38:00,
2013-01-17 03:43:00,32.4,28.4,30.06,WNW,300,0.0,11.0,85,0.00,,,0.01,0,HR-IXPWINDi_r2_v1.2.,2013-01-17 08:43:00,
2013-01-17 03:48:00,32.4,28.4,30.06,SSW,211,2.0,11.0,85,0.00,,,0.01,0,HR-IXPWINDi_r2_v1.2.,2013-01-17 08:48:00,
2013-01-17 03:53:00,32.4,28.4,30.06,WSW,253,2.0,10.0,85,0.00,,,0.01,0,HR-IXPWINDi_r2_v1.2.,2013-01-17 08:53:00,
2013-01-17 03:58:00,32.4,28.4,30.06,WSW,238,8.0,9.0,85,0.00,,,0.01,0,HR-IXPWINDi_r2_v1.2.,2013-01-17 08:58:00,
2013-01-17 04:04:00,32.4,28.4,30.06,SW,232,5.0,11.0,85,0.00,,,0.01,0,HR-IXPWINDi_r2_v1.2.,2013-01-17 09:04:00,
2013-01-17 04:09:00,32.4,28.4,30.07,SSW,201,3.0,11.0,85,0.00,,,0.01,0,HR-IXPWINDi_r2_v1.2.,2013-01-17 09:09:00,
2013-01-17 04:14:00,32.2,28.2,30.07,SSW,209,4.0,10.0,85,0.00,,,0.01,0,HR-IXPWINDi_r2_v1.2.,2013-01-17 09:14:00,
2013-01-17 04:19:00,32.2,28.2,30.07,SW,229,3.0,10.0,85,0.00,,,0.01,0,HR-IXPWINDi_r2_v1.2.,2013-01-17 09:19:00,
2013-01-17 04:24:00,32.2,28.2,30.06,WNW,291,1.0,10.0,85,0.00,,,0.01,0,HR-IXPWINDi_r2_v1.2.,2013-01-17 09:24:00,
2013-01-17 04:29:00,32.2,28.2,30.06,SW,229,3.0,11.0,85,0.00,,,0.01,0,HR-IXPWINDi_r2_v1.2.,2013-01-17 09:29:00,
2013-01-17 04:34:00,32.2,28.2,30.06,WNW,294,2.0,11.0,85,0.00,,,0.01,0,HR-IXPWINDi_r2_v1.2.,2013-01-17 09:34:00,
2013-01-17 04:40:00,32.1,28.4,30.06,SSW,206,4.0,7.0,86,0.00,,,0.01,0,HR-IXPWINDi_r2_v1.2.,2013-01-17 09:40:00,
2013-01-17 04:45:00,32.1,28.4,30.06,WSW,248,2.0,7.0,86,0.00,,,0.01,0,HR-IXPWINDi_r2_v1.2.,2013-01-17 09:45:00,
2013-01-17 04:50:00,32.1,28.4,30.07,SSW,212,1.0,7.0,86,0.00,,,0.01,0,HR-IXPWINDi_r2_v1.2.,2013-01-17 09:50:00,
2013-01-17 04:55:00,32.1,28.4,30.07,WSW,241,4.0,9.0,86,0.00,,,0.01,0,HR-IXPWINDi_r2_v1.2.,2013-01-17 09:55:00,
2013-01-17 05:00:00,32.1,28.4,30.07,SW,219,5.0,9.0,86,0.00,,,0.01,0,HR-IXPWINDi_r2_v1.2.,2013-01-17 10:00:00,
2013-01-17 05:06:00,31.9,28.2,30.07,SW,234,0.0,10.0,86,0.00,,,0.01,0,HR-IXPWINDi_r2_v1.2.,2013-01-17 10:06:00,
2013-01-17 05:11:00,31.9,28.2,30.07,SW,221,10.0,10.0,86,0.00,,,0.01,0,HR-IXPWINDi_r2_v1.2.,2013-01-17 10:11:00,
2013-01-17 05:16:00,31.9,28.2,30.07,SW,216,1.0,10.0,86,0.00,,,0.01,0,HR-IXPWINDi_r2_v1.2.,2013-01-17 10:16:00,
2013-01-17 05:21:00,31.9,28.2,30.07,NW,314,2.0,10.0,86,0.00,,,0.01,0,HR-IXPWINDi_r2_v1.2.,2013-01-17 10:21:00,
2013-01-17 05:26:00,31.9,28.2,30.07,WNW,289,2.0,8.0,86,0.00,,,0.01,0,HR-IXPWINDi_r2_v1.2.,2013-01-17 10:26:00,
2013-01-17 05:32:00,31.9,28.2,30.07,SW,220,2.0,8.0,86,0.00,,,0.01,0,HR-IXPWINDi_r2_v1.2.,2013-01-17 10:32:00,
2013-01-17 05:37:00,31.9,28.2,30.08,SW,229,0.0,7.0,86,0.00,,,0.01,0,HR-IXPWINDi_r2_v1.2.,2013-01-17 10:37:00,
2013-01-17 05:42:00,31.9,28.5,30.08,SW,221,2.0,6.0,87,0.00,,,0.01,0,HR-IXPWINDi_r2_v1.2.,2013-01-17 10:42:00,
2013-01-17 05:47:00,31.8,28.4,30.08,SW,215,4.0,6.0,87,0.00,,,0.01,0,HR-IXPWINDi_r2_v1.2.,2013-01-17 10:47:00,
2013-01-17 05:52:00,31.8,28.4,30.08,SW,234,1.0,6.0,87,0.00,,,0.01,0,HR-IXPWINDi_r2_v1.2.,2013-01-17 10:52:00,
2013-01-17 05:57:00,31.8,28.4,30.08,SW,230,3.0,5.0,87,0.00,,,0.01,0,HR-IXPWINDi_r2_v1.2.,2013-01-17 10:57:00,
2013-01-17 06:03:00,31.8,28.4,30.08,SSW,209,4.0,5.0,87,0.00,,,0.01,0,HR-IXPWINDi_r2_v1.2.,2013-01-17 11:03:00,
2013-01-17 06:08:00,31.8,28.4,30.08,SW,218,4.0,6.0,87,0.00,,,0.01,0,HR-IXPWINDi_r2_v1.2.,2013-01-17 11:08:00,
2013-01-17 06:13:00,31.8,28.4,30.08,SW,217,1.0,6.0,87,0.00,,,0.01,0,HR-IXPWINDi_r2_v1.2.,2013-01-17 11:13:00,
2013-01-17 06:18:00,31.6,28.2,30.08,SW,220,4.0,5.0,87,0.00,,,0.01,0,HR-IXPWINDi_r2_v1.2.,2013-01-17 11:18:00,
2013-01-17 06:23:00,31.6,28.2,30.08,SW,227,5.0,7.0,87,0.00,,,0.01,0,HR-IXPWINDi_r2_v1.2.,2013-01-17 11:23:00,
2013-01-17 06:28:00,31.6,28.4,30.08,SSW,199,5.0,7.0,88,0.00,,,0.01,0,HR-IXPWINDi_r2_v1.2.,2013-01-17 11:28:00,
2013-01-17 06:34:00,31.6,28.4,30.08,NW,308,0.0,7.0,88,0.00,,,0.01,0,HR-IXPWINDi_r2_v1.2.,2013-01-17 11:34:00,
2013-01-17 06:39:00,31.6,28.4,30.09,SW,222,2.0,6.0,88,0.00,,,0.01,0,HR-IXPWINDi_r2_v1.2.,2013-01-17 11:39:00,
2013-01-17 06:44:00,31.6,28.4,30.09,SW,219,2.0,6.0,88,0.00,,,0.01,0,HR-IXPWINDi_r2_v1.2.,2013-01-17 11:44:00,
2013-01-17 06:49:00,31.6,28.4,30.09,WSW,237,2.0,6.0,88,0.00,,,0.01,0,HR-IXPWINDi_r2_v1.2.,2013-01-17 11:49:00,
2013-01-17 06:55:00,31.5,28.3,30.09,SW,225,3.0,6.0,88,0.00,,,0.01,0,HR-IXPWINDi_r2_v1.2.,2013-01-17 11:55:00,
2013-01-17 07:00:00,31.5,28.3,30.09,SW,224,2.0,7.0,88,0.00,,,0.01,0,HR-IXPWINDi_r2_v1.2.,2013-01-17 12:00:00,
2013-01-17 07:05:00,31.5,28.3,30.09,WNW,301,0.0,7.0,88,0.00,,,0.01,0,HR-IXPWINDi_r2_v1.2.,2013-01-17 12:05:00,
2013-01-17 07:11:00,31.3,28.1,30.09,WNW,289,4.0,5.0,88,0.00,,,0.01,0,HR-IXPWINDi_r2_v1.2.,2013-01-17 12:11:00,
2013-01-17 07:16:00,31.3,28.1,30.09,SW,222,0.0,5.0,88,0.00,,,0.01,0,HR-IXPWINDi_r2_v1.2.,2013-01-17 12:16:00,
2013-01-17 07:21:00,31.3,28.1,30.09,WNW,287,2.0,4.0,88,0.00,,,0.01,0,HR-IXPWINDi_r2_v1.2.,2013-01-17 12:21:00,
2013-01-17 07:26:00,31.2,28.3,30.09,SW,229,0.0,4.0,89,0.00,,,0.01,0,HR-IXPWINDi_r2_v1.2.,2013-01-17 12:26:00,
2013-01-17 07:31:00,31.2,28.3,30.09,SW,229,0.0,4.0,89,0.00,,,0.01,0,HR-IXPWINDi_r2_v1.2.,2013-01-17 12:31:00,
2013-01-17 07:36:00,31.2,28.3,30.09,WNW,291,0.0,5.0,89,0.00,,,0.01,0,HR-IXPWINDi_r2_v1.2.,2013-01-17 12:36:00,
2013-01-17 07:41:00,31.2,28.3,30.09,SW,236,0.0,5.0,89,0.00,,,0.01,0,HR-IXPWINDi_r2_v1.2.,2013-01-17 12:41:00,
2013-01-17 07:47:00,31.2,28.3,30.09,SW,226,0.0,3.0,89,0.00,,,0.01,0,HR-IXPWINDi_r2_v1.2.,2013-01-17 12:47:00,
2013-01-17 07:52:00,31.2,28.3,30.10,SSW,197,1.0,6.0,89,0.00,,,0.01,0,HR-IXPWINDi_r2_v1.2.,2013-01-17 12:52:00,
2013-01-17 07:59:00,31.2,28.3,30.10,SSW,197,0.0,6.0,89,0.00,,,0.01,0,HR-IXPWINDi_r2_v1.2.,2013-01-17 12:59:00,
2013-01-17 08:04:00,31.2,28.3,30.10,SSW,197,2.0,4.0,89,0.00,,,0.01,5,HR-IXPWINDi_r2_v1.2.,2013-01-17 13:04:00,
2013-01-17 08:10:00,31.2,28.6,30.10,SSW,203,0.0,6.0,90,0.00,,,0.01,7,HR-IXPWINDi_r2_v1.2.,2013-01-17 13:10:00,
2013-01-17 08:15:00,31.2,28.6,30.10,SSW,198,0.0,6.0,90,0.00,,,0.01,11,HR-IXPWINDi_r2_v1.2.,2013-01-17 13:15:00,
2013-01-17 08:21:00,31.2,28.6,30.12,SW,231,1.0,6.0,90,0.00,,,0.01,12,HR-IXPWINDi_r2_v1.2.,2013-01-17 13:21:00,
2013-01-17 08:27:00,31.2,28.6,30.12,South,191,4.0,4.0,90,0.00,,,0.01,14,HR-IXPWINDi_r2_v1.2.,2013-01-17 13:27:00,
2013-01-17 08:32:00,31.2,28.6,30.12,SW,231,3.0,4.0,90,0.00,,,0.01,14,HR-IXPWINDi_r2_v1.2.,2013-01-17 13:32:00,
2013-01-17 08:37:00,31.2,28.6,30.13,South,184,1.0,5.0,90,0.00,,,0.01,12,HR-IXPWINDi_r2_v1.2.,2013-01-17 13:37:00,
2013-01-17 08:43:00,31.3,28.7,30.13,SW,218,3.0,5.0,90,0.00,,,0.01,14,HR-IXPWINDi_r2_v1.2.,2013-01-17 13:43:00,
2013-01-17 08:49:00,31.3,28.7,30.13,SSW,202,4.0,5.0,90,0.00,,,0.01,16,HR-IXPWINDi_r2_v1.2.,2013-01-17 13:49:00,
2013-01-17 08:55:00,31.3,28.7,30.14,SSW,212,0.0,5.0,90,0.00,,,0.01,16,HR-IXPWINDi_r2_v1.2.,2013-01-17 13:55:00,
2013-01-17 09:00:00,31.5,28.9,30.14,SW,228,2.0,5.0,90,0.00,,,0.01,16,HR-IXPWINDi_r2_v1.2.,2013-01-17 14:00:00,
2013-01-17 09:05:00,31.5,28.9,30.14,SW,215,0.0,4.0,90,0.00,,,0.01,18,HR-IXPWINDi_r2_v1.2.,2013-01-17 14:05:00,
2013-01-17 09:10:00,31.5,28.9,30.16,SW,222,0.0,6.0,90,0.00,,,0.01,23,HR-IXPWINDi_r2_v1.2.,2013-01-17 14:10:00,
2013-01-17 09:15:00,31.6,29.0,30.16,SW,224,4.0,7.0,90,0.00,,,0.01,25,HR-IXPWINDi_r2_v1.2.,2013-01-17 14:15:00,
2013-01-17 09:20:00,31.6,29.0,30.16,SW,234,0.0,7.0,90,0.00,,,0.01,25,HR-IXPWINDi_r2_v1.2.,2013-01-17 14:20:00,
2013-01-17 09:25:00,31.6,29.0,30.16,SW,222,2.0,7.0,90,0.00,,,0.01,26,HR-IXPWINDi_r2_v1.2.,2013-01-17 14:25:00,
2013-01-17 09:30:00,31.8,29.2,30.16,WNW,302,3.0,5.0,90,0.00,,,0.01,28,HR-IXPWINDi_r2_v1.2.,2013-01-17 14:30:00,
2013-01-17 09:35:00,31.8,29.2,30.16,SW,229,3.0,5.0,90,0.00,,,0.01,30,HR-IXPWINDi_r2_v1.2.,2013-01-17 14:35:00,
2013-01-17 09:41:00,31.8,29.2,30.16,SW,226,0.0,4.0,90,0.00,,,0.01,33,HR-IXPWINDi_r2_v1.2.,2013-01-17 14:41:00,
2013-01-17 09:46:00,31.8,29.2,30.16,SW,234,5.0,6.0,90,0.00,,,0.01,35,HR-IXPWINDi_r2_v1.2.,2013-01-17 14:46:00,
2013-01-17 09:51:00,31.8,29.2,30.17,West,260,0.0,6.0,90,0.00,,,0.01,46,HR-IXPWINDi_r2_v1.2.,2013-01-17 14:51:00,
2013-01-17 09:56:00,31.9,29.3,30.17,West,272,2.0,6.0,90,0.00,,,0.01,44,HR-IXPWINDi_r2_v1.2.,2013-01-17 14:56:00,
2013-01-17 10:01:00,31.9,29.3,30.17,SSW,213,0.0,5.0,90,0.00,,,0.01,35,HR-IXPWINDi_r2_v1.2.,2013-01-17 15:01:00,
2013-01-17 10:07:00,31.9,29.3,30.16,SSW,213,0.0,5.0,90,0.00,,,0.01,37,HR-IXPWINDi_r2_v1.2.,2013-01-17 15:07:00,
2013-01-17 10:12:00,31.9,29.0,30.16,NW,312,3.0,3.0,89,0.00,,,0.01,40,HR-IXPWINDi_r2_v1.2.,2013-01-17 15:12:00,
2013-01-17 10:17:00,32.1,29.2,30.16,SSW,203,0.0,4.0,89,0.00,,,0.01,53,HR-IXPWINDi_r2_v1.2.,2013-01-17 15:17:00,
2013-01-17 10:22:00,32.1,29.2,30.16,West,280,1.0,4.0,89,0.00,,,0.01,49,HR-IXPWINDi_r2_v1.2.,2013-01-17 15:22:00,
2013-01-17 10:27:00,32.1,29.2,30.16,West,280,0.0,3.0,89,0.00,,,0.01,60,HR-IXPWINDi_r2_v1.2.,2013-01-17 15:27:00,
2013-01-17 10:32:00,32.2,29.3,30.16,South,191,0.0,4.0,89,0.00,,,0.01,72,HR-IXPWINDi_r2_v1.2.,2013-01-17 15:32:00,
2013-01-17 10:38:00,32.2,29.3,30.16,SW,220,1.0,4.0,89,0.00,,,0.01,65,HR-IXPWINDi_r2_v1.2.,2013-01-17 15:38:00,
2013-01-17 10:43:00,32.2,29.3,30.16,SSW,209,5.0,6.0,89,0.00,,,0.01,60,HR-IXPWINDi_r2_v1.2.,2013-01-17 15:43:00,
2013-01-17 10:48:00,32.4,29.5,30.16,SW,236,4.0,6.0,89,0.00,,,0.01,53,HR-IXPWINDi_r2_v1.2.,2013-01-17 15:48:00,
2013-01-17 10:53:00,32.4,29.5,30.16,SW,224,2.0,6.0,89,0.00,,,0.01,51,HR-IXPWINDi_r2_v1.2.,2013-01-17 15:53:00,
2013-01-17 10:58:00,32.4,29.5,30.16,WNW,288,1.0,6.0,89,0.00,,,0.01,53,HR-IXPWINDi_r2_v1.2.,2013-01-17 15:58:00,
2013-01-17 11:03:00,32.5,29.6,30.16,SSW,198,4.0,4.0,89,0.00,,,0.01,56,HR-IXPWINDi_r2_v1.2.,2013-01-17 16:03:00,
2013-01-17 11:09:00,32.5,29.6,30.15,SSW,206,0.0,6.0,89,0.00,,,0.01,53,HR-IXPWINDi_r2_v1.2.,2013-01-17 16:09:00,
2013-01-17 11:14:00,32.5,29.6,30.15,SSW,210,2.0,6.0,89,0.00,,,0.01,63,HR-IXPWINDi_r2_v1.2.,2013-01-17 16:14:00,
2013-01-17 11:19:00,32.7,29.8,30.15,SW,225,1.0,5.0,89,0.00,,,0.01,76,HR-IXPWINDi_r2_v1.2.,2013-01-17 16:19:00,
2013-01-17 11:24:00,32.7,29.5,30.14,SSW,212,3.0,5.0,88,0.00,,,0.01,83,HR-IXPWINDi_r2_v1.2.,2013-01-17 16:24:00,
2013-01-17 11:29:00,32.8,29.6,30.14,SSW,206,2.0,6.0,88,0.00,,,0.01,88,HR-IXPWINDi_r2_v1.2.,2013-01-17 16:29:00,
2013-01-17 11:34:00,32.8,29.6,30.14,SW,215,1.0,7.0,88,0.00,,,0.01,90,HR-IXPWINDi_r2_v1.2.,2013-01-17 16:34:00,
2013-01-17 11:39:00,32.8,29.6,30.13,SSW,212,4.0,7.0,88,0.00,,,0.01,84,HR-IXPWINDi_r2_v1.2.,2013-01-17 16:39:00,
2013-01-17 11:45:00,32.9,29.4,30.13,SW,217,2.0,8.0,87,0.00,,,0.01,104,HR-IXPWINDi_r2_v1.2.,2013-01-17 16:45:00,
2013-01-17 11:50:00,32.9,29.4,30.13,SW,227,3.0,9.0,87,0.00,,,0.01,97,HR-IXPWINDi_r2_v1.2.,2013-01-17 16:50:00,
2013-01-17 11:55:00,32.9,29.4,30.13,SW,223,7.0,9.0,87,0.00,,,0.01,125,HR-IXPWINDi_r2_v1.2.,2013-01-17 16:55:00,
2013-01-17 12:00:00,33.1,29.6,30.13,NW,315,3.0,7.0,87,0.00,,,0.01,127,HR-IXPWINDi_r2_v1.2.,2013-01-17 17:00:00,
2013-01-17 12:06:00,33.1,29.3,30.11,SW,228,0.0,6.0,86,0.00,,,0.01,127,HR-IXPWINDi_r2_v1.2.,2013-01-17 17:06:00,
2013-01-17 12:12:00,33.1,29.3,30.11,SW,222,7.0,7.0,86,0.00,,,0.01,123,HR-IXPWINDi_r2_v1.2.,2013-01-17 17:12:00,
2013-01-17 12:17:00,33.1,29.3,30.11,SW,226,4.0,7.0,86,0.00,,,0.01,116,HR-IXPWINDi_r2_v1.2.,2013-01-17 17:17:00,
2013-01-17 12:22:00,33.2,29.4,30.10,WNW,293,0.0,7.0,86,0.00,,,0.01,114,HR-IXPWINDi_r2_v1.2.,2013-01-17 17:22:00,
2013-01-17 12:27:00,33.2,29.4,30.10,WNW,293,1.0,5.0,86,0.00,,,0.01,120,HR-IXPWINDi_r2_v1.2.,2013-01-17 17:27:00,
2013-01-17 12:32:00,33.4,29.6,30.10,WNW,283,0.0,5.0,86,0.00,,,0.01,135,HR-IXPWINDi_r2_v1.2.,2013-01-17 17:32:00,
2013-01-17 12:37:00,33.4,29.6,30.10,WNW,302,1.0,5.0,86,0.00,,,0.01,142,HR-IXPWINDi_r2_v1.2.,2013-01-17 17:37:00,
2013-01-17 12:42:00,33.5,29.7,30.10,SW,224,0.0,10.0,86,0.00,,,0.01,141,HR-IXPWINDi_r2_v1.2.,2013-01-17 17:42:00,
2013-01-17 12:48:00,33.5,29.7,30.10,SW,226,3.0,10.0,86,0.00,,,0.01,128,HR-IXPWINDi_r2_v1.2.,2013-01-17 17:48:00,
2013-01-17 12:53:00,33.4,29.6,30.09,SW,222,5.0,6.0,86,0.00,,,0.01,134,HR-IXPWINDi_r2_v1.2.,2013-01-17 17:53:00,
2013-01-17 12:58:00,33.5,29.5,30.09,SW,232,5.0,7.0,85,0.00,,,0.01,132,HR-IXPWINDi_r2_v1.2.,2013-01-17 17:58:00,
2013-01-17 13:03:00,33.5,29.5,30.09,SW,227,0.0,7.0,85,0.00,,,0.01,141,HR-IXPWINDi_r2_v1.2.,2013-01-17 18:03:00,
2013-01-17 13:09:00,33.5,29.5,30.10,SW,225,4.0,6.0,85,0.00,,,0.01,125,HR-IXPWINDi_r2_v1.2.,2013-01-17 18:09:00,
2013-01-17 13:14:00,33.7,29.6,30.10,SW,221,4.0,5.0,85,0.00,,,0.01,125,HR-IXPWINDi_r2_v1.2.,2013-01-17 18:14:00,
2013-01-17 13:19:00,33.7,29.6,30.10,SW,224,3.0,5.0,85,0.00,,,0.01,128,HR-IXPWINDi_r2_v1.2.,2013-01-17 18:19:00,
2013-01-17 13:24:00,33.7,29.6,30.09,WNW,291,4.0,4.0,85,0.00,,,0.01,127,HR-IXPWINDi_r2_v1.2.,2013-01-17 18:24:00,
2013-01-17 13:29:00,33.8,29.7,30.09,SW,220,0.0,4.0,85,0.00,,,0.01,116,HR-IXPWINDi_r2_v1.2.,2013-01-17 18:29:00,
2013-01-17 13:35:00,33.8,29.7,30.09,SSW,212,0.0,4.0,85,0.00,,,0.01,109,HR-IXPWINDi_r2_v1.2.,2013-01-17 18:35:00,
2013-01-17 13:40:00,33.8,29.7,30.09,SW,216,2.0,5.0,85,0.00,,,0.01,90,HR-IXPWINDi_r2_v1.2.,2013-01-17 18:40:00,
2013-01-17 13:45:00,33.8,29.7,30.09,SSW,195,2.0,6.0,85,0.00,,,0.01,93,HR-IXPWINDi_r2_v1.2.,2013-01-17 18:45:00,
2013-01-17 13:50:00,33.8,29.5,30.08,NW,314,0.0,6.0,84,0.00,,,0.01,100,HR-IXPWINDi_r2_v1.2.,2013-01-17 18:50:00,
2013-01-17 13:55:00,33.8,29.5,30.08,SW,225,2.0,5.0,84,0.00,,,0.01,111,HR-IXPWINDi_r2_v1.2.,2013-01-17 18:55:00,
2013-01-17 14:01:00,33.8,29.5,30.08,SW,228,4.0,5.0,84,0.00,,,0.02,109,HR-IXPWINDi_r2_v1.2.,2013-01-17 19:01:00,
2013-01-17 14:06:00,33.8,29.5,30.09,SSW,212,3.0,6.0,84,0.00,,,0.02,83,HR-IXPWINDi_r2_v1.2.,2013-01-17 19:06:00,
2013-01-17 14:11:00,33.8,29.5,30.09,SW,228,3.0,6.0,84,0.00,,,0.02,81,HR-IXPWINDi_r2_v1.2.,2013-01-17 19:11:00,
2013-01-17 14:16:00,34.0,29.7,30.09,SW,233,0.0,6.0,84,0.00,,,0.02,74,HR-IXPWINDi_r2_v1.2.,2013-01-17 19:16:00,
2013-01-17 14:21:00,34.0,29.7,30.08,SW,233,3.0,5.0,84,0.00,,,0.02,81,HR-IXPWINDi_r2_v1.2.,2013-01-17 19:21:00,
2013-01-17 14:26:00,34.0,29.7,30.08,SW,217,4.0,5.0,84,0.00,,,0.02,70,HR-IXPWINDi_r2_v1.2.,2013-01-17 19:26:00,
2013-01-17 14:32:00,34.0,29.7,30.08,SW,227,0.0,5.0,84,0.00,,,0.02,54,HR-IXPWINDi_r2_v1.2.,2013-01-17 19:32:00,
2013-01-17 14:37:00,34.0,29.4,30.08,WNW,295,0.0,5.0,83,0.00,,,0.02,51,HR-IXPWINDi_r2_v1.2.,2013-01-17 19:37:00,
2013-01-17 14:42:00,34.0,29.4,30.08,West,279,0.0,4.0,83,0.00,,,0.02,62,HR-IXPWINDi_r2_v1.2.,2013-01-17 19:42:00,
2013-01-17 14:47:00,34.0,29.4,30.08,SW,222,0.0,4.0,83,0.00,,,0.02,65,HR-IXPWINDi_r2_v1.2.,2013-01-17 19:47:00,
2013-01-17 14:53:00,34.0,29.4,30.08,SW,224,2.0,5.0,83,0.00,,,0.02,69,HR-IXPWINDi_r2_v1.2.,2013-01-17 19:53:00,
2013-01-17 14:58:00,34.0,29.4,30.08,SSW,212,0.0,5.0,83,0.00,,,0.02,76,HR-IXPWINDi_r2_v1.2.,2013-01-17 19:58:00,
2013-01-17 15:03:00,34.0,29.4,30.08,South,178,3.0,4.0,83,0.00,,,0.02,83,HR-IXPWINDi_r2_v1.2.,2013-01-17 20:03:00,
2013-01-17 15:08:00,34.0,29.4,30.09,South,186,4.0,5.0,83,0.00,,,0.02,79,HR-IXPWINDi_r2_v1.2.,2013-01-17 20:08:00,
2013-01-17 15:13:00,34.0,29.4,30.09,SW,222,2.0,5.0,83,0.00,,,0.02,86,HR-IXPWINDi_r2_v1.2.,2013-01-17 20:13:00,
2013-01-17 15:19:00,34.0,29.4,30.09,SSW,199,3.0,5.0,83,0.00,,,0.02,86,HR-IXPWINDi_r2_v1.2.,2013-01-17 20:19:00,
2013-01-17 15:24:00,34.1,29.5,30.10,SSW,212,2.0,5.0,83,0.00,,,0.02,76,HR-IXPWINDi_r2_v1.2.,2013-01-17 20:24:00,
2013-01-17 15:29:00,34.1,29.5,30.10,SSW,196,2.0,6.0,83,0.00,,,0.02,65,HR-IXPWINDi_r2_v1.2.,2013-01-17 20:29:00,
2013-01-17 15:34:00,34.1,29.5,30.10,SSW,196,4.0,6.0,83,0.00,,,0.02,54,HR-IXPWINDi_r2_v1.2.,2013-01-17 20:34:00,
2013-01-17 15:39:00,34.1,29.5,30.10,SSW,196,0.0,6.0,83,0.00,,,0.02,46,HR-IXPWINDi_r2_v1.2.,2013-01-17 20:39:00,
2013-01-17 15:44:00,34.1,29.5,30.10,SW,214,4.0,4.0,83,0.00,,,0.02,40,HR-IXPWINDi_r2_v1.2.,2013-01-17 20:44:00,
2013-01-17 15:49:00,34.1,29.5,30.10,SW,217,0.0,5.0,83,0.00,,,0.02,40,HR-IXPWINDi_r2_v1.2.,2013-01-17 20:49:00,
2013-01-17 15:54:00,34.0,29.4,30.09,SSW,207,3.0,5.0,83,0.00,,,0.02,40,HR-IXPWINDi_r2_v1.2.,2013-01-17 20:54:00,
2013-01-17 15:59:00,34.0,29.4,30.09,SW,214,2.0,5.0,83,0.00,,,0.02,44,HR-IXPWINDi_r2_v1.2.,2013-01-17 20:59:00,
2013-01-17 16:05:00,33.8,29.2,30.09,SW,219,2.0,5.0,83,0.00,,,0.02,44,HR-IXPWINDi_r2_v1.2.,2013-01-17 21:05:00,
2013-01-17 16:10:00,33.8,29.2,30.10,SW,223,4.0,5.0,83,0.00,,,0.02,39,HR-IXPWINDi_r2_v1.2.,2013-01-17 21:10:00,
2013-01-17 16:15:00,33.8,29.2,30.10,SW,215,2.0,5.0,83,0.00,,,0.02,33,HR-IXPWINDi_r2_v1.2.,2013-01-17 21:15:00,
2013-01-17 16:20:00,33.8,29.5,30.10,SW,215,0.0,5.0,84,0.00,,,0.02,30,HR-IXPWINDi_r2_v1.2.,2013-01-17 21:20:00,
2013-01-17 16:26:00,33.8,29.5,30.10,SW,215,0.0,3.0,84,0.00,,,0.02,28,HR-IXPWINDi_r2_v1.2.,2013-01-17 21:26:00,
2013-01-17 16:31:00,33.7,29.4,30.10,SW,215,0.0,3.0,84,0.00,,,0.03,25,HR-IXPWINDi_r2_v1.2.,2013-01-17 21:31:00,
2013-01-17 16:36:00,33.7,29.4,30.10,SW,215,0.0,3.0,84,0.00,,,0.03,21,HR-IXPWINDi_r2_v1.2.,2013-01-17 21:36:00,
2013-01-17 16:41:00,33.5,29.2,30.10,SW,215,0.0,3.0,84,0.00,,,0.03,19,HR-IXPWINDi_r2_v1.2.,2013-01-17 21:41:00,
2013-01-17 16:47:00,33.5,29.2,30.10,SW,215,2.0,3.0,84,0.00,,,0.03,14,HR-IXPWINDi_r2_v1.2.,2013-01-17 21:47:00,
2013-01-17 16:52:00,33.5,29.2,30.10,SW,215,0.0,3.0,84,0.00,,,0.03,11,HR-IXPWINDi_r2_v1.2.,2013-01-17 21:52:00,
2013-01-17 16:57:00,33.4,29.1,30.10,SW,215,2.0,3.0,84,0.00,,,0.03,9,HR-IXPWINDi_r2_v1.2.,2013-01-17 21:57:00,
2013-01-17 17:02:00,33.4,29.1,30.10,SW,215,1.0,3.0,84,0.00,,,0.03,5,HR-IXPWINDi_r2_v1.2.,2013-01-17 22:02:00,
2013-01-17 17:08:00,33.4,29.1,30.10,SW,215,0.0,3.0,84,0.00,,,0.03,0,HR-IXPWINDi_r2_v1.2.,2013-01-17 22:08:00,
2013-01-17 17:13:00,33.2,28.9,30.10,SW,215,1.0,3.0,84,0.00,,,0.03,0,HR-IXPWINDi_r2_v1.2.,2013-01-17 22:13:00,
2013-01-17 17:18:00,33.2,28.9,30.10,SW,215,2.0,3.0,84,0.00,,,0.03,0,HR-IXPWINDi_r2_v1.2.,2013-01-17 22:18:00,
2013-01-17 17:23:00,33.2,28.9,30.11,SW,215,0.0,3.0,84,0.00,,,0.03,0,HR-IXPWINDi_r2_v1.2.,2013-01-17 22:23:00,
2013-01-17 17:28:00,33.1,29.1,30.11,SW,215,1.0,2.0,85,0.00,,,0.03,0,HR-IXPWINDi_r2_v1.2.,2013-01-17 22:28:00,
2013-01-17 17:34:00,33.1,29.1,30.11,SW,228,0.0,4.0,85,0.00,,,0.03,0,HR-IXPWINDi_r2_v1.2.,2013-01-17 22:34:00,
2013-01-17 17:39:00,33.1,29.1,30.12,SW,228,0.0,4.0,85,0.00,,,0.03,0,HR-IXPWINDi_r2_v1.2.,2013-01-17 22:39:00,
2013-01-17 17:44:00,33.1,29.1,30.12,SW,228,0.0,3.0,85,0.00,,,0.03,0,HR-IXPWINDi_r2_v1.2.,2013-01-17 22:44:00,
2013-01-17 17:49:00,33.1,29.1,30.12,SW,228,0.0,1.0,85,0.00,,,0.03,0,HR-IXPWINDi_r2_v1.2.,2013-01-17 22:49:00,
2013-01-17 17:54:00,32.9,28.9,30.12,SW,228,0.0,0.0,85,0.00,,,0.03,0,HR-IXPWINDi_r2_v1.2.,2013-01-17 22:54:00,
2013-01-17 17:59:00,32.9,28.9,30.12,SW,228,0.0,1.0,85,0.00,,,0.03,0,HR-IXPWINDi_r2_v1.2.,2013-01-17 22:59:00,
2013-01-17 18:04:00,32.9,29.2,30.12,SW,228,0.0,2.0,86,0.00,,,0.03,0,HR-IXPWINDi_r2_v1.2.,2013-01-17 23:04:00,
2013-01-17 18:10:00,32.9,29.2,30.13,SW,228,0.0,2.0,86,0.00,,,0.03,0,HR-IXPWINDi_r2_v1.2.,2013-01-17 23:10:00,
2013-01-17 18:15:00,32.8,29.1,30.13,SW,228,0.0,2.0,86,0.00,,,0.03,0,HR-IXPWINDi_r2_v1.2.,2013-01-17 23:15:00,
2013-01-17 18:20:00,32.8,29.1,30.13,SW,228,3.0,3.0,86,0.00,,,0.03,0,HR-IXPWINDi_r2_v1.2.,2013-01-17 23:20:00,
2013-01-17 18:25:00,32.8,29.1,30.13,SSW,209,3.0,4.0,86,0.00,,,0.03,0,HR-IXPWINDi_r2_v1.2.,2013-01-17 23:25:00,
2013-01-17 18:31:00,32.7,29.2,30.13,SSW,209,1.0,4.0,87,0.00,,,0.03,0,HR-IXPWINDi_r2_v1.2.,2013-01-17 23:31:00,
2013-01-17 18:36:00,32.7,29.2,30.14,SSW,212,2.0,4.0,87,0.00,,,0.03,0,HR-IXPWINDi_r2_v1.2.,2013-01-17 23:36:00,
2013-01-17 18:41:00,32.5,29.0,30.14,SSW,212,1.0,4.0,87,0.00,,,0.03,0,HR-IXPWINDi_r2_v1.2.,2013-01-17 23:41:00,
2013-01-17 18:46:00,32.5,29.3,30.14,SSW,212,0.0,4.0,88,0.00,,,0.03,0,HR-IXPWINDi_r2_v1.2.,2013-01-17 23:46:00,
2013-01-17 18:51:00,32.4,29.2,30.12,NW,313,3.0,3.0,88,0.00,,,0.03,0,HR-IXPWINDi_r2_v1.2.,2013-01-17 23:51:00,
2013-01-17 18:56:00,32.4,29.2,30.12,WNW,300,0.0,4.0,88,0.00,,,0.03,0,HR-IXPWINDi_r2_v1.2.,2013-01-17 23:56:00,
2013-01-17 19:02:00,32.4,29.2,30.12,NW,304,2.0,4.0,88,0.00,,,0.03,0,HR-IXPWINDi_r2_v1.2.,2013-01-18 00:02:00,
2013-01-17 19:07:00,32.4,29.5,30.13,NW,304,0.0,4.0,89,0.00,,,0.03,0,HR-IXPWINDi_r2_v1.2.,2013-01-18 00:07:00,
2013-01-17 19:12:00,32.4,29.5,30.13,NW,304,0.0,4.0,89,0.00,,,0.03,0,HR-IXPWINDi_r2_v1.2.,2013-01-18 00:12:00,
2013-01-17 19:17:00,32.2,29.3,30.13,NW,304,0.0,3.0,89,0.00,,,0.03,0,HR-IXPWINDi_r2_v1.2.,2013-01-18 00:17:00,
2013-01-17 19:22:00,32.2,29.3,30.14,SW,224,0.0,3.0,89,0.00,,,0.03,0,HR-IXPWINDi_r2_v1.2.,2013-01-18 00:22:00,
2013-01-17 19:27:00,32.2,29.3,30.14,WNW,288,4.0,4.0,89,0.00,,,0.03,0,HR-IXPWINDi_r2_v1.2.,2013-01-18 00:27:00,
2013-01-17 19:32:00,32.1,29.5,30.14,NW,307,0.0,4.0,90,0.00,,,0.03,0,HR-IXPWINDi_r2_v1.2.,2013-01-18 00:32:00,
2013-01-17 19:38:00,32.1,29.5,30.15,SW,230,3.0,5.0,90,0.00,,,0.03,0,HR-IXPWINDi_r2_v1.2.,2013-01-18 00:38:00,
2013-01-17 19:43:00,32.1,29.5,30.15,SW,230,1.0,5.0,90,0.00,,,0.03,0,HR-IXPWINDi_r2_v1.2.,2013-01-18 00:43:00,
2013-01-17 19:48:00,32.1,29.5,30.15,SW,227,2.0,4.0,90,0.00,,,0.03,0,HR-IXPWINDi_r2_v1.2.,2013-01-18 00:48:00,
2013-01-17 19:53:00,32.1,29.5,30.15,WSW,248,1.0,9.0,90,0.00,,,0.03,0,HR-IXPWINDi_r2_v1.2.,2013-01-18 00:53:00,
2013-01-17 19:58:00,32.1,29.5,30.15,WNW,298,4.0,9.0,90,0.00,,,0.03,0,HR-IXPWINDi_r2_v1.2.,2013-01-18 00:58:00,
2013-01-17 20:04:00,32.1,29.5,30.15,WNW,293,0.0,5.0,90,0.00,,,0.03,0,HR-IXPWINDi_r2_v1.2.,2013-01-18 01:04:00,
2013-01-17 20:09:00,31.9,29.3,30.14,WNW,293,0.0,4.0,90,0.00,,,0.03,0,HR-IXPWINDi_r2_v1.2.,2013-01-18 01:09:00,
2013-01-17 20:14:00,31.9,29.3,30.14,SW,221,1.0,4.0,90,0.00,,,0.03,0,HR-IXPWINDi_r2_v1.2.,2013-01-18 01:14:00,
2013-01-17 20:19:00,31.9,29.5,30.14,SW,219,1.0,4.0,91,0.00,,,0.03,0,HR-IXPWINDi_r2_v1.2.,2013-01-18 01:19:00,
2013-01-17 20:25:00,31.9,29.5,30.15,SW,219,0.0,4.0,91,0.00,,,0.03,0,HR-IXPWINDi_r2_v1.2.,2013-01-18 01:25:00,
2013-01-17 20:30:00,31.9,29.5,30.15,SW,224,2.0,5.0,91,0.00,,,0.03,0,HR-IXPWINDi_r2_v1.2.,2013-01-18 01:30:00,
2013-01-17 20:35:00,31.8,29.4,30.15,SW,224,0.0,5.0,91,0.00,,,0.03,0,HR-IXPWINDi_r2_v1.2.,2013-01-18 01:35:00,
2013-01-17 20:40:00,31.8,29.4,30.15,WSW,242,1.0,4.0,91,0.00,,,0.03,0,HR-IXPWINDi_r2_v1.2.,2013-01-18 01:40:00,
2013-01-17 20:45:00,31.8,29.4,30.15,WSW,242,0.0,3.0,91,0.00,,,0.03,0,HR-IXPWINDi_r2_v1.2.,2013-01-18 01:45:00,
2013-01-17 20:51:00,31.8,29.4,30.13,NW,305,0.0,3.0,91,0.00,,,0.03,0,HR-IXPWINDi_r2_v1.2.,2013-01-18 01:51:00,
2013-01-17 20:56:00,31.8,29.4,30.13,NW,305,0.0,3.0,91,0.00,,,0.03,0,HR-IXPWINDi_r2_v1.2.,2013-01-18 01:56:00,
2013-01-17 21:01:00,31.6,29.3,30.13,NW,305,0.0,2.0,91,0.00,,,0.03,0,HR-IXPWINDi_r2_v1.2.,2013-01-18 02:01:00,
2013-01-17 21:06:00,31.6,29.3,30.14,NW,315,0.0,5.0,91,0.00,,,0.03,0,HR-IXPWINDi_r2_v1.2.,2013-01-18 02:06:00,
2013-01-17 21:11:00,31.6,29.3,30.14,SW,219,0.0,5.0,91,0.00,,,0.03,0,HR-IXPWINDi_r2_v1.2.,2013-01-18 02:11:00,
2013-01-17 21:16:00,31.6,29.3,30.14,SW,219,4.0,4.0,91,0.00,,,0.03,0,HR-IXPWINDi_r2_v1.2.,2013-01-18 02:16:00,
2013-01-17 21:22:00,31.6,29.3,30.12,NW,323,0.0,7.0,91,0.00,,,0.03,0,HR-IXPWINDi_r2_v1.2.,2013-01-18 02:22:00,
2013-01-17 21:27:00,31.6,29.3,30.12,NNW,328,1.0,7.0,91,0.00,,,0.03,0,HR-IXPWINDi_r2_v1.2.,2013-01-18 02:27:00,
2013-01-17 21:32:00,31.6,29.3,30.12,WNW,288,2.0,5.0,91,0.00,,,0.03,0,HR-IXPWINDi_r2_v1.2.,2013-01-18 02:32:00,
2013-01-17 21:37:00,31.6,29.3,30.13,WNW,301,1.0,6.0,91,0.00,,,0.03,0,HR-IXPWINDi_r2_v1.2.,2013-01-18 02:37:00,
2013-01-17 21:42:00,31.6,29.3,30.13,South,186,0.0,6.0,91,0.00,,,0.03,0,HR-IXPWINDi_r2_v1.2.,2013-01-18 02:42:00,
2013-01-17 21:48:00,31.6,29.0,30.13,SW,225,1.0,4.0,90,0.00,,,0.03,0,HR-IXPWINDi_r2_v1.2.,2013-01-18 02:48:00,
2013-01-17 21:53:00,31.6,29.0,30.13,SW,220,5.0,5.0,90,0.00,,,0.03,0,HR-IXPWINDi_r2_v1.2.,2013-01-18 02:53:00,
2013-01-17 21:58:00,31.6,29.0,30.13,WNW,296,4.0,7.0,90,0.00,,,0.03,0,HR-IXPWINDi_r2_v1.2.,2013-01-18 02:58:00,
2013-01-17 22:03:00,31.6,29.0,30.13,SW,223,4.0,7.0,90,0.00,,,0.03,0,HR-IXPWINDi_r2_v1.2.,2013-01-18 03:03:00,
2013-01-17 22:08:00,31.8,29.2,30.13,SSW,212,3.0,7.0,90,0.00,,,0.03,0,HR-IXPWINDi_r2_v1.2.,2013-01-18 03:08:00,
2013-01-17 22:14:00,31.9,29.3,30.13,SSW,210,2.0,11.0,90,0.00,,,0.03,0,HR-IXPWINDi_r2_v1.2.,2013-01-18 03:14:00,
2013-01-17 22:19:00,31.9,29.3,30.13,SW,217,0.0,11.0,90,0.00,,,0.03,0,HR-IXPWINDi_r2_v1.2.,2013-01-18 03:19:00,
2013-01-17 22:24:00,32.1,29.5,30.13,SW,216,4.0,10.0,90,0.00,,,0.03,0,HR-IXPWINDi_r2_v1.2.,2013-01-18 03:24:00,
2013-01-17 22:29:00,32.1,29.5,30.13,SW,226,5.0,7.0,90,0.00,,,0.03,0,HR-IXPWINDi_r2_v1.2.,2013-01-18 03:29:00,
2013-01-17 22:34:00,32.1,29.2,30.13,SW,229,4.0,8.0,89,0.00,,,0.03,0,HR-IXPWINDi_r2_v1.2.,2013-01-18 03:34:00,
2013-01-17 22:39:00,32.1,29.2,30.13,SW,218,4.0,8.0,89,0.00,,,0.03,0,HR-IXPWINDi_r2_v1.2.,2013-01-18 03:39:00,
2013-01-17 22:45:00,32.1,29.2,30.13,SSW,209,4.0,7.0,89,0.00,,,0.03,0,HR-IXPWINDi_r2_v1.2.,2013-01-18 03:45:00,
2013-01-17 22:50:00,31.9,29.0,30.12,South,184,1.0,7.0,89,0.00,,,0.03,0,HR-IXPWINDi_r2_v1.2.,2013-01-18 03:50:00,
2013-01-17 22:55:00,31.9,29.0,30.12,WNW,302,2.0,11.0,89,0.00,,,0.03,0,HR-IXPWINDi_r2_v1.2.,2013-01-18 03:55:00,
2013-01-17 23:00:00,31.9,29.0,30.12,SW,224,3.0,11.0,89,0.00,,,0.03,0,HR-IXPWINDi_r2_v1.2.,2013-01-18 04:00:00,
2013-01-17 23:06:00,31.9,28.7,30.12,SSW,208,4.0,12.0,88,0.00,,,0.03,0,HR-IXPWINDi_r2_v1.2.,2013-01-18 04:06:00,
2013-01-17 23:11:00,31.9,28.7,30.12,SW,214,2.0,14.0,88,0.00,,,0.03,0,HR-IXPWINDi_r2_v1.2.,2013-01-18 04:11:00,
2013-01-17 23:16:00,31.9,28.5,30.12,SW,223,5.0,14.0,87,0.00,,,0.03,0,HR-IXPWINDi_r2_v1.2.,2013-01-18 04:16:00,
2013-01-17 23:21:00,31.8,28.4,30.12,SW,227,6.0,13.0,87,0.00,,,0.03,0,HR-IXPWINDi_r2_v1.2.,2013-01-18 04:21:00,
2013-01-17 23:26:00,31.8,28.4,30.12,WNW,283,5.0,12.0,87,0.00,,,0.03,0,HR-IXPWINDi_r2_v1.2.,2013-01-18 04:26:00,
2013-01-17 23:32:00,31.6,28.2,30.12,SW,228,3.0,13.0,87,0.00,,,0.03,0,HR-IXPWINDi_r2_v1.2.,2013-01-18 04:32:00,
2013-01-17 23:37:00,31.6,28.2,30.13,SW,232,6.0,15.0,87,0.00,,,0.03,0,HR-IXPWINDi_r2_v1.2.,2013-01-18 04:37:00,
2013-01-17 23:42:00,31.5,27.8,30.13,SSW,201,7.0,15.0,86,0.00,,,0.03,0,HR-IXPWINDi_r2_v1.2.,2013-01-18 04:42:00,
2013-01-17 23:47:00,31.5,27.8,30.13,West,262,2.0,14.0,86,0.00,,,0.03,0,HR-IXPWINDi_r2_v1.2.,2013-01-18 04:47:00,
2013-01-17 23:52:00,31.3,27.6,30.14,West,262,3.0,14.0,86,0.00,,,0.03,0,HR-IXPWINDi_r2_v1.2.,2013-01-18 04:52:00,
2013-01-17 23:57:00,31.3,27.6,30.14,SW,223,3.0,14.0,86,0.00,,,0.03,0,HR-IXPWINDi_r2_v1.2.,2013-01-18 04:57:00,